www.pogodaiklimat.ru

Погода и климат >> Архив погоды >> Россия >> Сахалинская область >> Погиби


АРХИВ ПОГОДЫ в Погибях

Время (UTC), дата Ветер
(напр.,м/с)
 
Видим.   Явления Облачность Т
(С)
Тd
(С)
f
(%)
Тe
(С)
Тes
(С)
Комфортность P
(гПа)
Po
(гПа)
Тmin
(С)
Tmax
(С)
R
(мм)
R24
(мм)
S
(см)
03 13.08 Ю 6-8
{10}
50 км 9/3 1000 м
[Cu hum Ac trans Ci sp]
+19.4 +16.4 83 +21 +23 комфорт 1008.7 1007.9
06 13.08 Ю 8-10
{12}
50 км 8/0
[Ac trans Ci sp]
+19.2 +15.1 77 +20 +21 1008.3 1007.5
09 13.08 Ю 8-10
{12}
50 км 10/0
[As op]
+17.7 +13.5 76 +17 +17 1008.3 1007.5 +20.3
12 13.08 Ю 8-10
{12}
50 км 9/0
[Ac trans Ci sp]
+15.6 +13.1 85 +14 +14 1009.4 1008.6
15 13.08 Ю 8-10
{12}
50 км 8/0
[Ac trans Ci sp]
+14.0 +12.5 91 +11 +11 1009.5 1008.7
18 13.08 Ю 8-10
{12}
50 км 9/4 600 м
[Cb cap Ac trans]
+13.7 +12.1 90 +11 +11 1009.8 1009.0
21 13.08 Ю 8-10
{12}
4000 м дымка 10/10 600 м
[Cb cap]
+13.9 +13.2 96 +11 +11 1009.9 1009.1 +13.4
00 14.08 Ю 8-10
{12}
20 км 10/10 600 м
[Cb cap]
+17.0 +15.3 90 +16 +16 1010.2 1009.5
03 14.08 Ю 6-8
{10}
20 км 10/10 600 м
[Cb cap]
+17.2 +15.5 90 +16 +16 1010.7 1009.9
06 14.08 Ю 6-8
{8}
50 км 10/10 600 м
[Cb cap]
+17.8 +15.1 84 +17 +17 1010.7 1009.9
09 14.08 Ю 6-8
{8}
50 км 9/3 600 м
[Cb cap Ac trans]
+17.6 +12.6 72 +17 +17 1010.7 1009.9 +18.0
12 14.08 Ю 2-4
{6}
50 км 9/0
[Ac trans Ci sp]
+16.0 +14.6 91 +16 +16 1011.4 1010.6
15 14.08 Ю 2-2
{4}
50 км 6/0
[Ac trans Ci sp]
+14.0 +12.9 93 +13 +13 1011.5 1010.7
18 14.08 Ю 2-2
{2}
50 км 4/0
[Ac trans Ci sp]
+12.8 +11.9 94 +12 +12 1011.8 1011.0
21 14.08 Ю 4-6
{6}
50 км 9/0
[Ac trans Ci sp]
+13.5 +12.2 92 +12 +12 1011.8 1011.0 +12.8
00 15.08 Ю 4-6
{6}
50 км 6/0
[Ac trans Ci sp]
+19.0 +13.4 70 +20 +25 1011.8 1011.0
03 15.08 Ю 4-6
{8}
50 км 4/0
[Ci sp]
+20.2 +13.2 64 +22 +31 комфорт 1011.8 1011.0
06 15.08 Ю 4-6
{6}
50 км 8/0
[Ac trans Ci sp]
+19.4 +14.6 74 +21 +24 комфорт 1011.5 1010.7
09 15.08 Ю 4-6
{8}
50 км 6/0
[Ac trans Ci sp]
+17.6 +13.9 79 +17 +17 1011.5 1010.7 +20.5
12 15.08 Ю 4-4
{6}
50 км 4/0
[Ci sp]
+16.4 +13.9 85 +16 +16 1012.6 1011.8
15 15.08 Ю 2-2
{4}
50 км 3/0
[Ci sp]
+14.4 +13.0 91 +14 +14 1012.6 1011.9
18 15.08 Ю 2-2
{2}
50 км 5/0
[Ci sp]
+11.2 +10.2 94 +10 +10 1012.6 1011.8
21 15.08 Ю 2-2
{2}
50 км 10/10 600 м
[Cb cap]
+11.4 +10.0 91 +10 +10 1014.1 1013.3 +11.0
00 16.08 Ю 2-2
{2}
50 км 9/4 600 м
[Cb cap Ac trans Ci sp]
+17.1 +13.0 77 +17 +21 1013.1 1012.3
03 16.08 СВ 2-4
{4}
50 км 9/3 600 м
[Cb cap Ac trans Ci sp]
+18.2 +13.8 75 +19 +24 1013.1 1012.3
06 16.08 СВ 4-4
{6}
50 км 9/3 600 м
[Cb cap Ac trans Ci sp]
+19.4 +13.1 67 +21 +23 комфорт 1013.0 1012.2
09 16.08 В 6-8
{10}
50 км 9/5 600 м
[Cb cap Ac trans Ci sp]
+17.4 +11.3 67 +17 +17 1013.0 1012.2 +19.7
12 16.08 В 6-8
{10}
50 км 9/5 600 м
[Cb cap Ac trans]
+12.6 +10.1 85 +10 +10 1013.8 1013.0
15 16.08 В 4-6
{10}
50 км 9/5 600 м
[Cb cap Ac trans]
+11.0 +9.0 87 +9 +9 1014.1 1013.3
18 16.08 СВ 4-4
{6}
50 км 9/6 600 м
[Cb cap Ac trans]
+9.4 +7.5 88 +6 +6 1014.2 1013.4
21 16.08 СВ 4-4
{6}
50 км 9/5 600 м
[Cb cap Ac trans]
+12.5 +9.6 82 +11 +11 1013.4 1012.6 +9.2
00 17.08 СВ 6-8
{8}
50 км 9/8 600 м
[Cb cap Ac trans]
+13.3 +9.4 77 +11 +12 1012.6 1011.8
03 17.08 СВ 6-8
{8}
50 км 9/8 600 м
[Cb cap Ac trans]
+14.2 +9.3 72 +12 +13 1011.5 1010.7
06 17.08 СВ 6-8
{8}
50 км 9/9 600 м
[Cb cap]
+14.8 +8.9 68 +13 +13 1011.1 1010.3
09 17.08 СВ 6-8
{8}
50 км 9/9 600 м
[Cb cap]
+14.0 +7.8 66 +12 +12 1010.9 1010.1 +15.3
12 17.08 СВ 4-6
{8}
50 км 9/9 600 м
[Cb cap]
+12.3 +8.7 79 +10 +10 1011.8 1011.0
15 17.08 СВ 4-6
{6}
50 км 9/9 600 м
[Cb cap]
+11.0 +8.6 85 +9 +9 1011.9 1011.1
18 17.08 С 2-4
{6}
50 км 9/9 600 м
[Cb cap]
+9.2 +7.1 87 +7 +7 1011.7 1010.9
21 17.08 С 2-4
{4}
50 км 9/9 600 м
[Cb cap]
+10.4 +8.6 89 +9 +9 1012.1 1011.8 +9.0
00 18.08 С 2-4
{4}
50 км 10/10 600 м
[Cb cap]
+13.2 +8.8 75 +13 +13 1012.9 1012.1
03 18.08 В 2-4
{4}
50 км 9/9 600 м
[Cb cap]
+15.5 +8.6 63 +15 +17 1012.9 1012.1
06 18.08 Ю 2-2
{4}
50 км 9/9 600 м
[Cb cap]
+16.2 +8.8 62 +16 +17 1012.9 1012.1
09 18.08 ЮВ 2-4
{4}
50 км 9/9 600 м
[Cb cap]
+15.4 +10.5 73 +15 +15 1012.9 1012.1 +16.5
12 18.08 В 2-4
{4}
50 км 9/5 600 м
[Cb cap Ac trans]
+12.8 +10.1 84 +12 +12 1013.8 1013.0
15 18.08 В 2-2
{4}
50 км 9/9 600 м
[Cb cap]
+12.2 +10.3 88 +11 +11 1014.1 1013.3
18 18.08 Ю 2-2
{4}
50 км 9/9 600 м
[Cb cap]
+0.9 +7.9 100 -3 -3 1014.1 1013.3
21 18.08 Ю 2-2
{4}
50 км 9/9 600 м
[Cb cap]
+10.6 +9.0 90 +9 +9 1014.5 1013.7 +9.2
00 19.08 Ю 2-2
{4}
50 км 9/9 600 м
[Cb cap]
+16.0 +13.9 87 +16 +17 1016.0 1015.2
03 19.08 Ю 2-4
{6}
50 км 10/10 600 м
[Cb cap]
+17.4 +13.1 76 +18 +18 1016.0 1015.2
06 19.08 Ю 4-6
{6}
50 км 9/9 600 м
[Cb cap]
+17.8 +12.6 72 +18 +18 1015.8 1015.0
09 19.08 Ю 2-2
{6}
50 км 10/10 600 м
[Cb cap]
+17.0 +13.5 80 +17 +17 1015.9 1015.1 +18.2
12 19.08 ЮВ 2-4
{4}
50 км 9/9 600 м
[Cb cap]
+15.2 +13.2 88 +15 +15 1015.8 1015.0
15 19.08 ЮВ 2-4
{4}
50 км 9/9 600 м
[Cb cap]
+14.0 +12.0 88 +13 +13 1016.0 1015.2
18 19.08 Ю 2-2
{4}
50 км 10/10 600 м
[Cb cap]
+12.0 +10.1 88 +11 +11 1016.7 1015.9
21 19.08 Ю 2-2
{2}
50 км 10/10 600 м
[Cb cap]
+12.4 +9.0 80 +12 +12 1016.7 1015.9 +11.8
00 20.08 Ю 2-2
{2}
50 км {ливн. осадки} 10/10 600 м
[Cb cap]
+13.7 +11.8 88 +13 +13 1015.9 1015.1

 

Местоположение метеостанции Погиби (Сахалинская область, Россия): широта 52.22 долгота 141.60 высота над уровнем моря 6 м.

В архиве по умолчанию представлена погода в Погибях за последнюю неделю. Архивные данные за месяц целиком и за предыдущие месяцы, начиная с января 2011 года, Вы можете получить, выбрав интересующий диапазон дат из раскрывающегося списка и нажав кнопку "Ввод!".


*Определитесь, кто Вы:
робот инопланетянин человек

Внимание! Время в таблицах - всемирное. Для получения местного времени необходимо прибавить поправку, которая равна 11 ч.

Смотрите также архив погоды в соседних городах и на ближайших метеорологических станциях:

Погода в Джаоре (Хабаровский край, Россия) (57 км)
Погода в Богородском (Хабаровский край, Россия) (84 км)
Погода в Вале (Сахалинская область, Россия) (96 км)
Погода в Ныше (Сахалинская область, Россия) (108 км)
Погода в Ногликах (Сахалинская область, Россия) (108 км)
Погода в Мариинском (Хабаровский край, Россия) (116 км)
Погода в Николаевск-на-Амуре (Хабаровский край, Россия) (120 км)
Погода в Байдукове (Хабаровский край, Россия) (121 км)
Погода в Александровске-Сахалинском (Сахалинская область, Россия) (151 км)
Погода в Москальво (Сахалинская область, Россия) (162 км)

Пояснения к столбцам:

Ветер - указаны скорость ветра в м/с - средняя за 10 мин, порывы в срок и между сроками (в фигурных скобках) и направление, откуда дует ветер: С - северный, СВ - северо-восточный, В - восточный, ЮВ - юго-восточный, Ю - южный, ЮЗ - юго-западный, З - западный, СЗ - северо-западный.
Видимость - горизонтальная дальность видимости в метрах или километрах. При видимости от 1 до 10 км при отсутствии осадков обычно наблюдается дымка, при ухудшении видимости до 1 км и менее - туман. В сухую погоду видимость может ухудшаться дымом, пылью или мглою.
Явления - указаны атмосферные явления, наблюдавшиеся в срок или в последний час перед сроком; фигурными скобками обозначены явления, наблюдавшиеся между сроками (за 1-3 часа до срока); квадратными скобками обозначены град или гололедные отложения с указанием их диаметра в мм.
Облачность - указаны через наклонную черту общая и нижняя облачность в баллах и высота нижней границы облаков в метрах; квадратными скобками обозначены формы облаков: Ci - перистые, Cs - перисто-слоистые, Cc - перисто-кучевые, Ac - высококучевые, As - высокослоистые, Sc - слоисто-кучевые, Ns - слоисто-дождевые, Cu - кучевые, Cb - кучево-дождевые. Подробнее классификацию облаков см. в Атласе облаков (PDF).
T - Температура воздуха - температура, измеренная на высоте 2 м над землей.
Td - Температура точки росы - температура, при понижении до которой содержащийся в воздухе водяной пар достигнет насыщения.
f - Относительная влажность воздуха - влажноcть воздуха, измеренная на высоте 2 м над землей.
Te - Эффективная температура - температура, которую ощущает одетый по сезону человек в тени. Характеристика душности погоды. При расчете учитывается влияние влажности воздуха и скорости ветра на теплоощущения человека.
Tes - Эффективная температура на солнце - температура, которую ощущает человек, с поправкой на солнечный нагрев. Характеристика знойности погоды. Зависит от высоты солнца над горизонтом, облачности и скорости ветра. Ночью, в пасмурную погоду, а также при ветре 12 м/с и более поправка равна нулю.
P - Атмосферное давление - приведенное к уровню моря атмосферное давление.
Po - Атмосферное давление - измеренное на уровне метеостанции атмосферное давление.
Tmin - Минимальная температура - минимум температуры воздуха на высоте 2 м над землей.
Tmax - Максимальная температура - максимум температуры воздуха на высоте 2 м над землей.
R - Количество осадков - Количество выпавших осадков за период времени, мм. При наведении курсора мыши на число - период времени, за который выпало указанное количество осадков.
R24 - Количество осадков - Количество выпавших осадков за 24 часа, мм.
S - Снежный покров - Высота снежного покрова, см. При наведении курсора мыши на число - состояние снежного покрова и степень покрытия местности в баллах.